Flag for Maldives Weather past 2 weeks in Male, Maldives

Now
82 °F

Broken clouds.


Feels Like: 92 °F
Forecast: 83 / 87 °F
Wind: 8 mph from South

Location: Male Airport

Current Time: Oct 22, 2014 at 7:03:19 AM

Latest Report: Oct 22, 2014 at 6:00 AM


Visibility: N/A

Pressure: 29.83 "Hg

Humidity: 89%

Dew point: 79 °F

Location of MaleLocation

Historic Weather in Male — Graph

°F

Male temperature yesterday

Maximum temperature yesterday: 90 °F (at 11:00 AM)
Minimum temperature yesterday: 82 °F (at 4:00 AM)
Average temperature yesterday: 86 °F

Past Weeks' High & Low Weather Summary

 TemperatureHumidityPressure
High90 °F (Oct 21, 11:00 AM)100% (Oct 17, 3:00 AM)29.95 "Hg (Oct 17, 3:00 AM)
Low75 °F (Oct 17, 3:00 AM)62% (Oct 19, 11:00 AM)29.74 "Hg (Oct 21, 2:00 AM)
Average84 °F80%29.84 "Hg
* Reported Oct 7 5:00 AM — Oct 22 5:00 AM, Male, Weather by CustomWeather, © 2014

Note: Actual official high and low records may vary slightly from our data, if they occured in-between our weather recording intervals... More about our weather records

Advertising

Male weather history for previous 24 hours

 ConditionsComfort  
Time TempWeatherWind HumidityBarometerVisibility
5:00 AM
Oct 22
81 °FPartly cloudy.15 mph94%29.83 "HgN/A
4:00 AM81 °FPassing clouds.6 mph89%29.83 "HgN/A
2:00 AM82 °FPartly cloudy.10 mph84%29.83 "HgN/A
1:00 AM82 °FPartly cloudy.10 mph84%29.86 "HgN/A
12:00 AM82 °FPartly cloudy.16 mph84%29.89 "HgN/A
11:00 PM
Oct 21
82 °FPartly cloudy.9 mph84%29.89 "HgN/A
10:00 PM84 °FPassing clouds.8 mph74%29.92 "HgN/A
9:00 PM84 °FPartly cloudy.8 mph79%29.89 "HgN/A
8:00 PM84 °FPassing clouds.8 mph79%29.86 "HgN/A
6:00 PM86 °FPassing clouds.8 mph75%29.83 "HgN/A
5:00 PM88 °FScattered clouds.9 mph70%29.80 "HgN/A
4:00 PM88 °FWarm.9 mph70%29.77 "HgN/A
3:00 PM88 °FScattered clouds.9 mph70%29.77 "HgN/A
2:00 PM90 °FScattered clouds.13 mph67%29.80 "HgN/A
1:00 PM90 °FPassing clouds.12 mph67%29.83 "HgN/A
12:00 PM90 °FScattered clouds.9 mph67%29.86 "HgN/A
11:00 AM90 °FScattered clouds.9 mph67%29.89 "HgN/A
10:00 AM88 °FPassing clouds.8 mph70%29.89 "HgN/A
9:00 AM88 °FScattered clouds.10 mph70%29.89 "HgN/A
8:00 AM86 °FBroken clouds.8 mph75%29.86 "HgN/A
7:00 AM84 °FScattered clouds.8 mph74%29.86 "HgN/A
Weather by CustomWeather, © 2014

See weather overviewHow to use our weather pages